When you browse on this site, cookies collect data to enhance your experience and personalize the content and advertising you see.
Visit our Privacy Policy to learn more. By continuing to use the site, you agree to this use of cookies and data.
  • en France
  • Liste des pays
  • À 7 jours
  • Température de l'eau
  • Carte satellitaire
  • Carte météo
  • Widgets météo
  • user-avatar
    Se connecter

    Météo par heure à Byala

    Ce jour, 17 Juillet, Mercredi

    Heure Température Précipitation Vent Pression Humidité
    00:00 +18°C° 0 mm 3 m/s 747 mmHg 81%
    01:00 +18°C° 0 mm 3 m/s 747 mmHg 82%
    02:00 +17°C° 0 mm 3 m/s 747 mmHg 84%
    03:00 +17°C° 0 mm 3 m/s 747 mmHg 84%
    04:00 +17°C° 0 mm 3 m/s 747 mmHg 84%
    05:00 +17°C° 0 mm 4 m/s 747 mmHg 85%
    06:00 +18°C° 0 mm 4 m/s 747 mmHg 75%
    07:00 +20°C° 0 mm 4 m/s 747 mmHg 66%
    08:00 +22°C° 0 mm 4 m/s 747 mmHg 56%
    09:00 +25°C° 0 mm 4 m/s 747 mmHg 50%
    10:00 +26°C° 0 mm 4 m/s 747 mmHg 44%
    11:00 +28°C° 0 mm 4 m/s 747 mmHg 38%
    12:00 +29°C° 0 mm 4 m/s 747 mmHg 37%
    13:00 +29°C° 0 mm 4 m/s 747 mmHg 37%
    14:00 +29°C° 0 mm 4 m/s 746 mmHg 36%
    15:00 +29°C° 0 mm 4 m/s 746 mmHg 40%
    16:00 +28°C° 0 mm 3 m/s 747 mmHg 43%
    17:00 +27°C° 0 mm 3 m/s 747 mmHg 47%
    18:00 +25°C° 0 mm 2 m/s 746 mmHg 53%
    19:00 +24°C° 0 mm 2 m/s 746 mmHg 59%
    20:00 +22°C° 0 mm 1 m/s 746 mmHg 66%
    21:00 +21°C° 0 mm 1 m/s 746 mmHg 67%
    22:00 +21°C° 0 mm 1 m/s 747 mmHg 69%
    23:00 +20°C° 0 mm 1 m/s 747 mmHg 71%

    Demain, 18 Juillet, Jeudi

    Heure Température Précipitation Vent Pression Humidité
    00:00 +20°C° 0 mm 1 m/s 747 mmHg 71%
    01:00 +19°C° 0 mm 2 m/s 747 mmHg 72%
    02:00 +18°C° 0 mm 3 m/s 746 mmHg 72%
    03:00 +18°C° 0 mm 3 m/s 747 mmHg 72%
    04:00 +18°C° 0 mm 3 m/s 747 mmHg 72%
    05:00 +18°C° 0 mm 3 m/s 747 mmHg 71%
    06:00 +20°C° 0 mm 4 m/s 747 mmHg 66%
    07:00 +21°C° 0 mm 4 m/s 747 mmHg 62%
    08:00 +23°C° 0 mm 4 m/s 748 mmHg 57%
    09:00 +26°C° 0 mm 4 m/s 748 mmHg 52%
    10:00 +28°C° 0 mm 3 m/s 748 mmHg 47%
    11:00 +29°C° 0 mm 2 m/s 749 mmHg 42%
    12:00 +29°C° 0 mm 3 m/s 749 mmHg 44%
    13:00 +28°C° 0 mm 3 m/s 749 mmHg 47%
    14:00 +28°C° 0 mm 3 m/s 749 mmHg 49%
    15:00 +27°C° 0 mm 3 m/s 749 mmHg 51%
    16:00 +27°C° 0 mm 3 m/s 749 mmHg 53%
    17:00 +27°C° 0 mm 2 m/s 749 mmHg 56%
    18:00 +25°C° 0 mm 2 m/s 749 mmHg 61%
    19:00 +24°C° 0 mm 2 m/s 749 mmHg 67%
    20:00 +23°C° 0 mm 2 m/s 749 mmHg 72%
    21:00 +21°C° 0 mm 2 m/s 750 mmHg 76%
    22:00 +21°C° 0 mm 1 m/s 750 mmHg 79%
    23:00 +20°C° 0 mm 1 m/s 750 mmHg 82%

    Après-demain, 19 Juillet, Vendredi

    Heure Température Précipitation Vent Pression Humidité
    00:00 +20°C° 0 mm 1 m/s 750 mmHg 82%
    01:00 +18°C° 0 mm 0 m/s 751 mmHg 83%
    02:00 +18°C° 0 mm 0 m/s 751 mmHg 83%
    03:00 +17°C° 0 mm 0 m/s 751 mmHg 83%
    04:00 +19°C° 0 mm 1 m/s 751 mmHg 83%
    05:00 +19°C° 0 mm 1 m/s 751 mmHg 83%
    06:00 +21°C° 0 mm 1 m/s 751 mmHg 74%
    07:00 +24°C° 0 mm 1 m/s 751 mmHg 66%
    08:00 +26°C° 0 mm 1 m/s 752 mmHg 57%
    09:00 +27°C° 0 mm 2 m/s 752 mmHg 52%
    10:00 +28°C° 0 mm 2 m/s 752 mmHg 46%
    11:00 +29°C° 0 mm 2 m/s 752 mmHg 41%
    12:00 +29°C° 0 mm 3 m/s 752 mmHg 40%
    13:00 +29°C° 0 mm 3 m/s 752 mmHg 40%
    14:00 +30°C° 0 mm 4 m/s 752 mmHg 39%
    15:00 +29°C° 0 mm 4 m/s 752 mmHg 42%
    16:00 +28°C° 0 mm 4 m/s 752 mmHg 44%
    17:00 +28°C° 0 mm 4 m/s 751 mmHg 46%
    18:00 +26°C° 0 mm 3 m/s 752 mmHg 56%
    19:00 +24°C° 0 mm 3 m/s 752 mmHg 66%
    20:00 +21°C° 0 mm 3 m/s 752 mmHg 76%
    21:00 +20°C° 0 mm 3 m/s 752 mmHg 79%
    22:00 +20°C° 0 mm 2 m/s 752 mmHg 81%
    23:00 +19°C° 0 mm 2 m/s 753 mmHg 83%

    20 Juillet, Samedi

    Heure Température Précipitation Vent Pression Humidité
    00:00 +20°C° 0 mm 1 m/s 752 mmHg 84%
    01:00 +20°C° 0 mm 1 m/s 752 mmHg 84%
    02:00 +19°C° 0 mm 1 m/s 752 mmHg 84%
    03:00 +19°C° 0 mm 1 m/s 752 mmHg 84%
    04:00 +19°C° 0 mm 1 m/s 752 mmHg 83%
    05:00 +18°C° 0 mm 2 m/s 752 mmHg 83%
    06:00 +20°C° 0 mm 2 m/s 752 mmHg 72%
    07:00 +23°C° 0 mm 2 m/s 752 mmHg 62%
    08:00 +26°C° 0 mm 2 m/s 753 mmHg 52%
    09:00 +27°C° 0 mm 3 m/s 753 mmHg 47%
    10:00 +28°C° 0 mm 3 m/s 753 mmHg 43%
    11:00 +29°C° 0 mm 4 m/s 753 mmHg 38%
    12:00 +30°C° 0 mm 4 m/s 753 mmHg 37%
    13:00 +30°C° 0 mm 4 m/s 753 mmHg 36%
    14:00 +30°C° 0 mm 4 m/s 753 mmHg 35%
    15:00 +30°C° 0 mm 4 m/s 753 mmHg 37%
    16:00 +29°C° 0 mm 4 m/s 753 mmHg 39%
    17:00 +28°C° 0 mm 3 m/s 753 mmHg 41%
    18:00 +26°C° 0 mm 3 m/s 753 mmHg 50%
    19:00 +24°C° 0 mm 2 m/s 753 mmHg 60%
    20:00 +21°C° 0 mm 2 m/s 753 mmHg 70%
    21:00 +21°C° 0 mm 1 m/s 753 mmHg 71%
    22:00 +21°C° 0 mm 1 m/s 753 mmHg 71%
    23:00 +18°C° 0 mm 0 m/s 754 mmHg 72%

    21 Juillet, Dimanche

    Heure Température Précipitation Vent Pression Humidité
    00:00 +20°C° 0 mm 1 m/s 753 mmHg 69%
    01:00 +20°C° 0 mm 1 m/s 753 mmHg 66%
    02:00 +20°C° 0 mm 1 m/s 753 mmHg 63%
    03:00 +20°C° 0 mm 1 m/s 753 mmHg 62%
    04:00 +20°C° 0 mm 1 m/s 753 mmHg 61%
    05:00 +20°C° 0 mm 1 m/s 753 mmHg 60%
    06:00 +22°C° 0 mm 1 m/s 753 mmHg 53%
    07:00 +25°C° 0 mm 1 m/s 753 mmHg 47%
    08:00 +27°C° 0 mm 1 m/s 753 mmHg 40%
    09:00 +29°C° 0 mm 1 m/s 753 mmHg 37%
    10:00 +30°C° 0 mm 1 m/s 753 mmHg 33%
    11:00 +32°C° 0 mm 2 m/s 753 mmHg 29%
    12:00 +32°C° 0 mm 2 m/s 753 mmHg 30%
    13:00 +33°C° 0 mm 3 m/s 753 mmHg 31%
    14:00 +33°C° 0 mm 4 m/s 753 mmHg 31%
    15:00 +32°C° 0 mm 4 m/s 753 mmHg 34%
    16:00 +32°C° 0 mm 4 m/s 753 mmHg 36%
    17:00 +30°C° 0 mm 4 m/s 752 mmHg 39%
    18:00 +28°C° 0 mm 3 m/s 753 mmHg 48%
    19:00 +26°C° 0 mm 2 m/s 753 mmHg 57%
    20:00 +23°C° 0 mm 2 m/s 753 mmHg 66%
    21:00 +23°C° 0 mm 1 m/s 753 mmHg 67%
    22:00 +23°C° 0 mm 1 m/s 753 mmHg 67%
    23:00 +22°C° 0 mm 1 m/s 753 mmHg 68%

    22 Juillet, Lundi

    Heure Température Précipitation Vent Pression Humidité
    00:00 +22°C° 0 mm 1 m/s 753 mmHg 65%
    01:00 +22°C° 0 mm 1 m/s 753 mmHg 62%
    02:00 +22°C° 0 mm 1 m/s 752 mmHg 59%
    03:00 +22°C° 0 mm 1 m/s 752 mmHg 58%
    04:00 +21°C° 0 mm 1 m/s 752 mmHg 56%
    05:00 +21°C° 0 mm 1 m/s 752 mmHg 55%
    06:00 +24°C° 0 mm 1 m/s 752 mmHg 49%
    07:00 +26°C° 0 mm 1 m/s 752 mmHg 43%
    08:00 +29°C° 0 mm 1 m/s 752 mmHg 38%
    09:00 +30°C° 0 mm 1 m/s 752 mmHg 35%
    10:00 +32°C° 0 mm 2 m/s 752 mmHg 32%
    11:00 +34°C° 0 mm 2 m/s 752 mmHg 29%
    12:00 +34°C° 0 mm 3 m/s 752 mmHg 30%
    13:00 +34°C° 0 mm 4 m/s 752 mmHg 30%
    14:00 +34°C° 0 mm 5 m/s 752 mmHg 31%
    15:00 +33°C° 0 mm 4 m/s 751 mmHg 33%
    16:00 +32°C° 0 mm 4 m/s 751 mmHg 36%
    17:00 +32°C° 0 mm 4 m/s 751 mmHg 38%
    18:00 +28°C° 0 mm 4 m/s 751 mmHg 46%
    19:00 +26°C° 0 mm 3 m/s 750 mmHg 53%
    20:00 +24°C° 0 mm 2 m/s 750 mmHg 61%
    21:00 +24°C° 0 mm 2 m/s 750 mmHg 62%
    22:00 +23°C° 0 mm 2 m/s 750 mmHg 63%
    23:00 +23°C° 0 mm 1 m/s 750 mmHg 63%
    Voir plus